Find Starlink 5680

NORAD ID: 55455 Int'l Des: 2023-015 Owner: SPXS Country: US Constellation: starlink operational
LEOCIRCULAR

实时位置

正在加载3D地球...

关于 Starlink 5680

正在加载描述...

即将过境

Passes for default location (London). Set your location on the main map for personalized predictions.

高度历史

Loading altitude history...

两行轨道根数

1 55455U 23015G 26121.43292953 .00000716 00000-0 35526-4 0 9993
2 55455 43.0045 31.2628 0001307 231.7149 128.3585 15.27583305178784
Epoch: May 1, 2026 • Age: 6 hours

当前状态

高度 484.8 km
速度 7.62 km/s
星下点 -13.69°S, 125.86°E
发射日期 Feb 2, 2023
运行时间 3.2 years
类型 internet

技术详情

分类 Payload
质量 305.00 kg
干质量 290.00 kg
总质量 305.00 kg
长度 0.20 m
直径 2.80 m
跨度 9.00 m
形状 Box + pan
制造商 SPXS
平台类型 Starlink
阶段状态 In Orbit
所有者/国家 SPXS/US

Most Searched